GW2721 Weather Reports


time (UTC)temp
C
wind
direction
speed
KPH
gust
KPH
rain 1hr
cm
rain 24hr
cm
rain mn
cm
humidity
%
barometer
mb
20260505034536 19 136 0.0 0.0 0.00 0.00 0.00 49 1009.3
20260505033110 19 136 0.0 0.0 0.00 0.00 0.00 48 1009.4
20260505031552 20 136 0.0 0.0 0.00 0.00 0.00 46 1009.3
20260505030016 20 171 0.0 0.0 0.00 0.00 0.00 45 1009.3
20260505024545 20 213 0.0 0.0 0.00 0.00 0.00 45 1009.3
20260505023007 20 194 0.0 0.0 0.00 0.00 0.00 44 1009.3
20260505021551 20 189 0.0 0.0 0.00 0.00 0.00 44 1009.2
20260505020040 20 136 0.0 0.0 0.00 0.00 0.00 43 1009.3
20260505014509 20 171 0.0 0.0 0.00 0.00 0.00 43 1009.1
20260505013042 21 200 0.0 0.0 0.00 0.00 0.00 43 1009.1
20260505011602 21 217 0.0 0.0 0.00 0.00 0.00 42 1008.8
20260505010027 21 148 0.0 0.0 0.00 0.00 0.00 41 1008.7
20260505003021 22 147 0.0 0.0 0.00 0.00 0.00 39 1008.6
20260505000041 22 187 0.0 0.0 0.00 0.00 0.00 37 1008.6
20260504234603 23 209 0.0 0.0 0.00 0.00 0.00 36 1008.5
20260504233019 23 193 0.0 0.0 0.00 0.00 0.00 35 1008.5
20260504231541 23 106 0.0 0.0 0.00 0.00 0.00 34 1008.4
20260504230053 23 186 0.0 0.0 0.00 0.00 0.00 34 1008.4
20260504224524 24 108 0.0 0.0 0.00 0.00 0.00 33 1008.5
20260504223009 25 127 0.0 0.0 0.00 0.00 0.00 32 1008.4
20260504221548 25 153 0.0 6.4 0.00 0.00 0.00 31 1008.4
20260504220107 25 201 0.0 0.0 0.00 0.00 0.00 31 1008.3
20260504214630 25 132 0.0 0.0 0.00 0.00 0.00 30 1008.4
20260504213008 26 117 0.0 0.0 0.00 0.00 0.00 29 1008.4
20260504210059 26 163 0.0 0.0 0.00 0.00 0.00 29 1008.4
20260504204502 26 137 0.0 0.0 0.00 0.00 0.00 29 1008.5
20260504203005 26 192 0.0 0.0 0.00 0.00 0.00 28 1008.8
20260504194558 25 133 0.0 0.0 0.00 0.00 0.00 31 1009.3
20260504193104 25 207 0.0 0.0 0.00 0.00 0.00 30 1009.6
20260504191547 25 161 0.0 0.0 0.00 0.00 0.00 31 1009.9
20260504190052 25 88 0.0 0.0 0.00 0.00 0.00 31 1010.2
20260504183112 25 169 0.0 0.0 0.00 0.00 0.00 32 1010.6
20260504181543 24 168 0.0 0.0 0.00 0.00 0.00 34 1010.9
20260504174604 23 211 0.0 0.0 0.00 0.00 0.00 33 1011.2
20260504171607 23 127 0.0 0.0 0.00 0.00 0.00 32 1011.7
20260504170113 23 108 0.0 0.0 0.00 0.00 0.00 35 1011.9
20260504160105 22 150 0.0 0.0 0.00 0.00 0.00 33 1012.6
20260504150118 20 165 0.0 0.0 0.00 0.00 0.00 36 1013.0
20260504081518 8 237 0.0 0.0 0.00 0.00 0.00 81 1014.8
20260504060109 6 237 0.0 0.0 0.00 0.00 0.00 81 1015.2
20260504044653 6 237 0.0 0.0 0.00 0.00 0.00 74 1015.3
20260504043034 6 237 0.0 0.0 0.00 0.00 0.00 72 1015.3
20260504041628 6 237 0.0 0.0 0.00 0.00 0.00 70 1015.2
20260504040123 6 237 0.0 0.0 0.00 0.00 0.00 69 1015.3